[Iaude] MPEC S211: 2023 LK2 [a=2.42,e=0.47,i=4.7,H=20.46]
    mpec at marsden.cfa.harvard.edu 
    mpec at marsden.cfa.harvard.edu
       
    Mon Sep 25 12:19:53 EDT 2023
    
    
  
M.P.E.C. 2023-S211                           Issued 2023 September 25, 16:18 UT
     The Minor Planet Electronic Circulars contain information on unusual
         minor planets, routine data on comets and natural satellites,
         and occasional editorial announcements.  They are published
    on behalf of Division F of the International Astronomical Union by the
          Minor Planet Center, Smithsonian Astrophysical Observatory,
                          Cambridge, MA 02138, U.S.A.
			  
             Prepared using the Tamkin Foundation Computer Network
                              MPC at CFA.HARVARD.EDU
            URL https://www.minorplanetcenter.net/    ISSN 1523-6714
                                    2023 LK2                                    
                           Revision to MPEC 2023-M32                            
Additional Observations:
     K23L02K 1C2008 09 22.35110 02 25 09.12 +15 07 55.7          21.1 VrES211G96
     K23L02K 1C2008 09 22.36065 02 25 08.79 +15 07 50.7          21.7 VrES211G96
     K23L02K 1C2008 09 22.37030 02 25 08.50 +15 07 45.5          21.5 VrES211G96
     K23L02K 1C2008 09 22.37986 02 25 08.22 +15 07 40.3          21.1 VrES211G96
     K23L02K 1C2008 10 23.34203 01 58 45.94 +09 33 06.0          21.1 VrES211G96
     K23L02K 1C2008 10 23.34914 01 58 45.55 +09 33 01.8          21.0 VrES211G96
     K23L02K 1C2008 10 23.35633 01 58 45.08 +09 32 57.8          21.3 VrES211G96
     K23L02K 1C2008 10 23.36339 01 58 44.68 +09 32 52.9          21.1 VrES211G96
Observer details:
G96 Mt. Lemmon Survey.  Observers R. A. Kowalski, R. E. Hill.  Measurers E. C.
    Beshore, A. Boattini, G. J. Garradd, A. R. Gibbs, A. D. Grauer, R. E.
    Hill, R. A. Kowalski, S. M. Larson, R. H. McNaught.  1.5-m reflector +
    CCD.
First and last observations above in comparison with prediction:
Residuals in seconds of arc (or zero decimals in degrees), reference and Delta-T
080922 G96   48-    4-    081023 G96   58-    8-    MPO745286   -0.20 days
Orbital elements:
2023 LK2                                                 Earth MOID = 0.2857 AU
Epoch 2023 Sept. 13.0 TT = JDT 2460200.5                Veres                   
M  10.42154              (2000.0)            P               Q                  
n   0.26154206     Peri.  117.15159     +0.70220316     +0.71155442             
a   2.4216332      Node   197.52407     -0.67865318     +0.65852903             
e   0.4682548      Incl.    4.67019     -0.21526865     +0.24500984             
P   3.77           H   20.46          G   0.15           U   0                  
Residuals in seconds of arc
080922 G96  0.6+  0.3-    230712 H21  0.3-  0.2+    230817 L87  1.0-  0.8-
080922 G96  0.2-  0.1-    230712 H21  0.3-  0.1+    230818 B72  0.1-  0.0
080922 G96  0.3-  0.1-    230715 M49  0.4-  0.3+    230818 B72  0.3-  0.3-
080922 G96  0.3-  0.2-    230715 M49  0.1-  0.2-    230818 B72  0.1-  0.3+
081023 G96  0.5-  0.0     230715 M49  0.1+  0.0     230818 K87  0.1-  0.0
081023 G96  0.2+  0.1+    230716 807  0.1-  0.1-    230818 K87  0.4-  0.0
081023 G96  0.1-  0.6+    230716 807  0.3+  0.4-    230818 K87  0.1+  0.6+
081023 G96  0.4+  0.0     230716 807  0.1-  0.4-    230819 130  0.1-  0.1+
230615 F52  0.0   0.1-    230716 H21  0.6-  0.3-    230819 130  0.1-  0.2+
230615 F52  0.1+  0.1-    230716 H21  0.5-  0.6-    230820 F51  0.0   0.0
230615 F52  0.0   0.0     230716 H21  0.0   0.3-    230820 F51  0.0   0.0
230615 F52  0.0   0.0     230716 H21  0.4-  0.3-    230820 F51  0.0   0.0
230616 807  0.2+  0.2-    230716 H21  0.6-  0.0     230820 F51  0.0   0.0
230616 807  0.3-  0.1+    230716 H21  0.1-  0.3+    230820 K19  0.1+  0.6+
230616 807 (0.1+  1.4-)   230716 118  0.1+  0.7-    230820 K74  0.4-  0.1+
230616 H01  0.1+  0.1-    230716 118  0.0   0.2-    230820 K19  0.1+  0.5+
230616 H01  0.0   0.0     230718 Z84  0.0   0.2+    230820 K74  0.1-  0.1+
230616 H01  0.0   0.0     230718 Z84  0.3+  0.5+    230820 K19  0.2+  0.1-
230616 H01  0.0   0.0     230721 M49  0.2-  0.5+    230820 K74  0.3-  0.1-
230616 T14  0.0   0.0     230721 M49  0.0   0.3-    230820 K74  0.5-  0.3-
230616 T14  0.0   0.0     230721 M49  0.1-  0.4-    230820 K87  0.2-  0.1+
230616 T14  0.0   0.0     230722 M49  0.1+  0.2-    230820 K87  0.2+  0.4+
230616 L01  0.7+  0.3+    230722 M49  0.3-  0.1+    230820 K87  0.0   0.7+
230616 L01  0.2+  0.2+    230722 M49  0.4-  0.4+    230821 K87  0.2-  0.2+
230616 L01  0.5+  0.3+    230724 F51  0.0   0.0     230821 K87  0.1+  0.0
230616 L01  0.1-  0.5+    230724 F51  0.1+  0.0     230821 K87  0.5-  0.3-
230617 H21  0.4-  0.2+    230724 F51  0.0   0.0     230823 M45  0.5-  0.3+
230617 858  0.2-  0.4+    230724 F51  0.1+  0.1+    230823 M45  0.4-  0.1+
230617 H21  0.3-  0.2+    230724 M45  0.1-  0.0     230823 M45  0.1-  0.4+
230617 858  0.4-  0.1-    230725 M45  0.3-  0.2+    230823 K74  0.2-  0.8+
230617 H21  0.4-  0.4+    230725 M45  0.0   0.1-    230823 K74  0.2-  0.3-
230617 858  0.1+  0.1+    230726 X06  0.0   0.0     230823 K74  0.3-  0.2-
230618 H21  0.7-  0.1-    230726 X06  0.0   0.0     230824 W68  0.4-  0.4-
230618 H21  0.4-  0.1-    230726 X06  0.0   0.2+    230824 W68  0.2-  0.6-
230618 H21  0.4-  0.1+    230727 M49  0.1+  0.2+    230824 W68  0.3-  0.6-
230618 H21  0.4-  0.3+    230727 M49  0.1-  0.2+    230824 W68  0.4-  0.8-
230618 H21  0.2-  0.4+    230727 M49  0.1+  0.0     230824 U52  0.1-  0.1+
230622 I52  0.1+  0.5-    230728 F52  0.0   0.0     230824 U52  0.1-  0.0
230622 I52  0.2-  0.4-    230728 F52  0.0   0.0     230825 M45  0.2-  0.1-
230622 I52  0.4-  0.7-    230728 F52  0.0   0.0     230825 M45  0.1-  0.1-
230622 F52  0.1+  0.0     230728 F52  0.1+  0.0     230825 M45  0.2-  0.2+
230622 F52  0.0   0.0     230729 M45  0.1-  0.0     230826 U52  0.0   1.7+
230622 F52  0.1+  0.0     230729 M45  0.3-  0.1+    230826 U52  0.5-  0.9-
230624 H21  0.0   0.2+    230729 M45  0.7-  0.0     230826 B72  0.1-  0.0
230624 H21  0.4+  0.2-    230804 M45  0.5+  0.1-    230826 B72  0.0   0.3-
230624 H21  0.3+  0.0     230804 M45  0.1-  0.1+    230826 M45  0.2-  0.0
230624 H21  0.2+  0.2+    230807 U52  0.3-  0.0     230826 M45  0.5-  0.0
230624 H21  0.1+  0.4+    230807 U52  0.4-  0.2-    230826 M45  0.1-  0.2-
230625 G96  0.3-  0.2+    230808 U52  0.6-  0.2+    230903 H21  0.1+  0.2+
230625 G96  0.6+  0.2-    230808 U52  0.8+  0.5-    230903 H21  0.1+  0.0
230625 G96  0.1+  0.3+    230808 H21  0.2+  0.2+    230903 H21  0.2-  0.1-
230625 G96  0.1-  0.1+    230808 H21  0.0   0.3+    230903 H21  0.2-  0.0
230626 H21  0.4-  0.4-    230808 H21  0.2-  0.2+    230904 H21  0.0   0.0
230626 H21  0.4-  0.1-    230808 H21  0.2-  0.1+    230904 H21  0.0   0.2+
230626 H21  0.4-  0.0     230808 H21  0.1-  0.2+    230904 H21  0.1+  0.2+
230626 H21  0.3-  0.5-    230808 H21  0.2+  0.1+    230904 H21  0.1-  0.0
230626 F51  0.1-  0.0     230808 M45  0.0   0.1+    230904 K74  0.0   0.1+
230626 F51  0.1+  0.1+    230808 M45  0.1-  0.0     230904 K74  0.1+  0.3+
230626 F51  0.0   0.0     230808 M45  0.0   0.1+    230904 K74  0.3-  0.4+
230627 H21  0.4+  0.3-    230809 U52  0.6-  0.2-    230904 K74  0.1+  0.0
230627 H21  0.4+  0.2+    230809 U52  0.4+  0.0     230905 F51  0.1-  0.1+
230627 H21  0.2-  0.5+    230809 K74  0.2-  0.2+    230905 F51  0.1-  0.1+
230627 H21  0.5-  1.0+    230809 K74  0.2-  0.1-    230905 F51  0.0   0.1+
230629 807  0.1+  0.2-    230809 K74  0.1-  0.1+    230905 F51  0.0   0.0
230629 807  0.6-  0.5-    230809 K74  0.3-  0.0     230906 G96  0.1-  0.0
230629 807  0.3-  0.2+    230809 K74  0.1+  0.0     230906 G96  0.1+  0.1-
230707 I52  0.3-  0.2-    230811 U52  0.8-  1.3-    230906 G96  0.1+  0.0
230707 I52  0.3+  0.2+    230811 U52  1.8-  0.6-    230906 G96  0.1+  0.2-
230707 I52  1.1-  0.2+    230811 K87  0.2+  0.1-    230906 U52  0.5-  0.4-
230708 291  0.2-  0.2+    230811 K87  0.0   0.3+    230906 U52  0.5+  0.1+
230708 291 (0.8-  1.5+)   230811 K87  0.0   0.6+    230906 U52  0.4+  0.1+
230708 291  0.5+  0.6-    230812 M22  0.5-  0.2-    230906 K87  0.2-  0.4+
230708 G96  0.0   0.1+    230812 M22  0.1-  0.7+    230906 K87  0.1-  0.1-
230708 G96  0.3-  0.1+    230812 M22  0.5+  0.4+    230907 B72  0.6-  0.4+
230708 G96  0.1+  0.1+    230813 M22  0.0   0.3+    230907 B72  0.9-  0.1-
230708 G96  0.2+  0.4+    230813 W68  0.5+  0.2+    230908 K14  0.1-  0.0
230709 M49  0.2+  0.0     230813 W68  0.6+  0.5+    230908 K14  0.2+  0.4+
230709 M49  0.6-  0.2-    230813 W68  0.3+  1.3+    230908 K14  0.1+  0.1+
230709 M49  0.0   0.0     230813 W68  0.9-  0.9-    230908 K14  0.2-  0.1-
230709 M49  0.6-  0.2-    230813 130  0.3+  0.2+    230908 K14  0.2-  0.2-
230709 H21  0.1-  0.0     230813 130  0.2+  0.1-    230909 U52  0.4+  0.2+
230709 H21  0.2-  0.1+    230813 M22  1.0-  0.0     230909 U52  0.6+  0.2-
230709 H21  0.1+  0.0     230813 M22  0.1+  0.4+    230909 U52  0.5-  0.4-
230709 H21  0.1+  0.0     230813 M22  0.0   1.2+    230911 U52 (2.0-  3.0-)
230710 H21  0.0   0.2-    230813 M22  0.2+  0.3-    230911 U52  0.7+  1.3-
230710 H21  0.0   0.1-    230814 U52  0.0   0.1-    230919 V00  0.1-  0.2+
230710 G96  0.1+  0.0     230814 U52  0.2+  0.3-    230919 V00  0.0   0.1+
230710 H21  0.1-  0.1-    230814 M49  0.1+  0.2+    230919 V00  0.0   0.1+
230710 H21  0.0   0.2-    230814 M49  0.2+  0.1+    230919 V00  0.0   0.0
230710 G96  0.2+  0.1-    230814 M49  0.4+  0.4+    230919 F51  0.0   0.0
230710 G96  0.0   0.0     230815 M49  0.1+  0.6+    230919 F51  0.1-  0.0
230710 G96  0.1+  0.1+    230815 M49  0.0   0.5+    230919 F51  0.0   0.1+
230710 K83  0.1-  0.1-    230815 M49  0.4+  0.2+    230920 G96  0.0   0.0
230710 K83  0.0   0.6+    230816 M45  0.6-  0.1+    230920 G96  0.1-  0.1-
230710 K83  0.1+  0.4+    230816 M45  0.2-  0.2+    230920 G96  0.0   0.0
230712 H21  0.2+  0.2-    230816 M45  0.3-  0.6+    230920 G96  0.0   0.0
230712 H21  0.1+  0.0     230817 L87  0.5-  0.3-
230712 H21  0.1-  0.0     230817 L87  0.4+  0.2+
Ephemeris:
2023 LK2                 a,e,i = 2.42, 0.47, 5                   q = 1.2877
Date    TT    R. A. (2000) Decl.     Delta      r    Elong.  Phase     V
2023 08 26    22 00 10.2 +03 07 17   0.3040  1.3074   165.6    11.1    19.1
...
2023 09 10    22 16 26.1 +00 08 15   0.3436  1.3424   165.3    11.0    19.5
...
2023 09 18    22 25 16.7 -01 24 27   0.3768  1.3674   161.4    13.6    19.8
...
2023 09 24    22 32 11.2 -02 24 08   0.4074  1.3887   157.6    16.0    20.1
2023 09 25    22 33 22.0 -02 33 01   0.4130  1.3925   156.9    16.4    20.1
2023 09 26    22 34 33.3 -02 41 35   0.4187  1.3963   156.2    16.8    20.2
...
2023 10 02    22 41 50.8 -03 25 52   0.4559  1.4202   152.1    19.3    20.5
...
2023 10 10    22 52 00.0 -04 05 38   0.5132  1.4548   146.5    22.2    20.9
...
2023 10 25    23 12 24.8 -04 22 41   0.6438  1.5266   136.4    26.7    21.6
A. U. Tomatic                (C) Copyright 2023 MPC           M.P.E.C. 2023-S211
    
    
More information about the Iaude
mailing list